Station YKTV2 - 8637689 - Yorktown USCG Training Center, VA Image indicating link to RSS feed of recent meteorological observations for station YKTV2


Conditions at YKTV2 as of
(11:48 pm EDT on 06/20/2024)
0348 GMT on 06/21/2024:
     

Click on the graph icon in the table below to see a time series plot of the last five days of that observation.

5-day plot - Wind Direction Wind Direction (WDIR):SSE ( 150 deg true )
5-day plot - Wind Speed Wind Speed (WSPD): 2.9 kts
5-day plot - Wind Gust Wind Gust (GST): 4.1 kts
5-day plot - Atmospheric Pressure Atmospheric Pressure (PRES):30.29 in
5-day plot - Air Temperature Air Temperature (ATMP): 75.2 °F
5-day plot - Water Temperature Water Temperature (WTMP): 79.3 °F
5-day plot - Wind Speed at 10 Meters Wind Speed at 10 meters (WSPD10M): 3.9 kts
5-day plot - Wind Speed at 20 Meters Wind Speed at 20 meters (WSPD20M): 3.9 kts
5-day plot -  Wind Speed, Wind Gust and Atmospheric Pressure Combined plot of Wind Speed, Gust, and Air Pressure
NOS Water Level Observation Network Water Level
Previous observations
TIME
(EDT)
5-day plot - Wind Direction
WDIR
 
5-day plot - Wind Speed
WSPD
kts
5-day plot - Wind Gust
GST
kts
5-day plot - Wave Height
WVHT
ft
5-day plot - Dominant Wave Period
DPD
sec
5-day plot - Average Wave Period
APD
sec
5-day plot - Mean Wave Direction
MWD
 
5-day plot - Atmospheric Pressure
PRES
in
5-day plot - Pressure Tendency
PTDY
in
5-day plot - Air Temperature
ATMP
°F
5-day plot - Water Temperature
WTMP
°F
5-day plot - Dew Point
DEWP
°F
5-day plot - Salinity
SAL
psu
5-day plot - Visibility
VIS
nmi
5-day plot - Tide (above MLLW)
TIDE
ft
2024-06-20 11:42 pmSSE 2.9 5.1----30.29- 75.2 79.3----
2024-06-20 11:36 pmSSE 2.9 5.1----30.29- 75.2 79.3----
2024-06-20 11:30 pmSSE 2.9 5.1----30.29- 75.2 79.3----
2024-06-20 11:24 pmSSE 4.1 4.1----30.29- 75.4 79.5----
2024-06-20 11:18 pm S 4.1 6.0----30.29- 75.6 79.5----
2024-06-20 11:12 pm S 4.1 6.0----30.29- 75.7 79.7----
2024-06-20 11:06 pmSSE 4.1 6.0----30.29- 75.9 79.9----
2024-06-20 11:00 pmSSE 6.0 7.0----30.29+0.01 75.7 79.5----
2024-06-20 10:54 pmSSE 5.1 7.0----30.29- 76.1 79.5----
2024-06-20 10:48 pmSSE 4.1 6.0----30.29- 76.1 79.7----
2024-06-20 10:42 pmSSE 5.1 6.0----30.29- 76.3 79.7----
2024-06-20 10:36 pmSSE 5.1 6.0----30.29- 76.3 79.7----
2024-06-20 10:30 pmSSE 6.0 7.0----30.29- 76.3 79.9----
2024-06-20 10:24 pmSSE 5.1 7.0----30.29- 76.5 80.1----
2024-06-20 10:18 pmSSE 5.1 7.0----30.29- 76.6 80.2----
2024-06-20 10:12 pm SE 5.1 7.0----30.28- 76.6 80.2----
2024-06-20 10:06 pmSSE 6.0 7.0----30.28- 76.6 79.9----
2024-06-20 10:00 pm SE 6.0 8.0----30.28+0.00 76.8 79.2----
2024-06-20 09:54 pm SE 6.0 7.0----30.28- 76.8 79.2----
2024-06-20 09:48 pm SE 6.0 7.0----30.27- 77.0 79.2----
2024-06-20 09:42 pm SE 5.1 8.0----30.27- 77.0 79.2----
2024-06-20 09:36 pm SE 6.0 8.0----30.27- 77.2 79.2----
2024-06-20 09:30 pm SE 7.0 8.9----30.27- 77.2 79.3----
2024-06-20 09:24 pm SE 6.0 8.0----30.27- 77.4 79.3----
2024-06-20 09:18 pm SE 5.1 8.0----30.27- 77.4 79.3----
2024-06-20 09:12 pm SE 5.1 8.0----30.27- 77.5 79.3----
2024-06-20 09:06 pm SE 7.0 8.0----30.27- 77.5 79.3----
2024-06-20 09:00 pm SE 6.0 7.0----30.27+0.00 77.7 79.3----
2024-06-20 08:54 pm SE 6.0 7.0----30.27- 77.7 79.3----
2024-06-20 08:48 pm SE 6.0 8.9----30.27- 77.9 79.3----
2024-06-20 08:42 pmESE 7.0 9.9----30.27- 77.9 79.3----
2024-06-20 08:36 pmESE 7.0 9.9----30.27- 78.1 79.3----
2024-06-20 08:30 pm SE 8.0 11.1----30.27- 78.3 79.3----
2024-06-20 08:24 pmESE 7.0 11.1----30.27- 78.3 79.2----
2024-06-20 08:18 pmESE 8.0 8.9----30.27- 78.4 79.3----
2024-06-20 08:12 pmESE 8.0 9.9----30.27- 78.6 79.3----
2024-06-20 08:06 pmESE 8.9 11.1----30.27- 78.8 79.3----
2024-06-20 08:00 pmESE 7.0 9.9----30.28-0.02 79.0 79.3----
2024-06-20 07:54 pmESE 8.0 9.9----30.28- 79.3 79.5----
2024-06-20 07:48 pm E 8.9 11.1----30.28- 79.3 79.5----
2024-06-20 07:42 pm E 8.0 12.0----30.28- 79.5 79.5----
2024-06-20 07:36 pmESE 9.9 11.1----30.28- 79.5 79.5----
2024-06-20 07:30 pmESE 8.0 11.1----30.28- 79.9 79.5----
2024-06-20 07:24 pm E 9.9 12.0----30.28- 79.9 79.5----
2024-06-20 07:00 pmESE 7.0 9.9----30.27-0.04 80.4 79.3----
2024-06-20 06:54 pm E 8.9 11.1----30.28- 80.4 79.3----
2024-06-20 06:48 pm E 9.9 12.0----30.28- 80.2 79.3----
2024-06-20 06:42 pmESE 6.0 9.9----30.28- 80.6 79.3----
2024-06-20 06:36 pmESE 8.0 11.1----30.27- 80.4 79.5----
2024-06-20 06:30 pmESE 7.0 11.1----30.27-- 79.7----
2024-06-20 06:24 pmESE 8.9 11.1----30.27-- 79.7----
2024-06-20 06:18 pmESE 8.9 12.0----30.27-------
2024-06-20 06:12 pm E 12.0 13.0----30.27-------
2024-06-20 06:06 pmESE 9.9 14.0----30.27-------
2024-06-20 06:00 pm E 9.9 13.0----30.27-0.06 80.2 79.7----
2024-06-20 05:54 pm E 8.9 11.1----30.28- 80.4 79.9----
2024-06-20 05:48 pm E 8.0 13.0----30.28- 80.8 79.9----
2024-06-20 05:42 pm E 9.9 12.0----30.28- 80.4 79.9----
2024-06-20 05:36 pmESE 7.0 12.0----30.28- 81.1 79.9----
2024-06-20 05:30 pm E 11.1 12.0----30.29- 80.6 79.9----
2024-06-20 05:24 pm E 11.1 12.0----30.29- 80.6 79.7----
2024-06-20 05:18 pm E 9.9 12.0----30.29- 81.0 79.7----
2024-06-20 05:12 pm E 9.9 11.1----30.29- 81.0 79.7----
2024-06-20 05:06 pm E 9.9 13.0----30.29- 80.8 79.7----
2024-06-20 05:00 pm E 9.9 12.0----30.29-0.04 80.8 79.9----
2024-06-20 04:54 pm E 11.1 13.0----30.30- 80.4 80.1----
2024-06-20 04:48 pm E 8.9 12.0----30.30- 80.4 79.9----
2024-06-20 04:42 pm E 9.9 12.0----30.30- 80.8 80.1----
2024-06-20 04:36 pmESE 8.0 12.0----30.31- 80.6 80.1----
2024-06-20 04:30 pmESE 9.9 12.0----30.31- 80.6 80.1----
2024-06-20 04:24 pm E 8.9 12.0----30.31- 80.6 80.2----
2024-06-20 04:18 pmESE 8.0 11.1----30.31- 81.0 80.2----
2024-06-20 04:12 pm E 11.1 13.0----30.31- 80.8 80.2----
2024-06-20 04:06 pm E 11.1 13.0----30.31- 80.8 80.2----
2024-06-20 04:00 pm E 13.0 15.0----30.32-0.03 80.8 80.2----
2024-06-20 03:54 pm E 9.9 14.0----30.32- 80.6 80.2----
2024-06-20 03:48 pm E 12.0 14.0----30.32- 80.4 80.1----
2024-06-20 03:42 pm E 12.0 14.0----30.32- 80.1 80.2----
2024-06-20 03:36 pm E 12.0 13.0----30.32- 80.2 80.1----
2024-06-20 03:30 pm E 11.1 13.0----30.32-- 80.1----
2024-06-20 03:24 pm E 12.0 14.0----30.32-- 80.1----
2024-06-20 03:18 pm E 12.0 14.0----30.33- 80.1 80.1----
2024-06-20 03:12 pm E 12.0 14.0----30.33- 79.3 80.1----
2024-06-20 03:06 pm E 12.0 14.0----30.33- 79.3 79.9----
2024-06-20 03:00 pm E 9.9 15.0----30.33-0.03 79.5 79.9----
2024-06-20 02:54 pm E 12.0 14.0----30.33- 79.0 79.2----
2024-06-20 02:48 pm E 11.1 14.0----30.33- 79.2 78.6----
2024-06-20 02:42 pm E 12.0 14.0----30.34- 78.8 78.6----
2024-06-20 02:36 pm E 12.0 13.0----30.34- 78.8 78.4----
2024-06-20 02:30 pm E 12.0 14.0----30.34- 78.8 78.6----
2024-06-20 02:24 pm E 12.0 13.0----30.34- 79.0 78.8----
2024-06-20 02:18 pm E 11.1 12.0----30.34- 78.8 79.3----
2024-06-20 02:12 pm E 12.0 14.0----30.34- 79.0 79.5----
2024-06-20 02:06 pm E 12.0 14.0----30.34- 78.8 79.3----
2024-06-20 02:00 pm E 12.0 13.0----30.34-0.03 78.8 79.2----
2024-06-20 01:54 pm E 11.1 13.0----30.34- 79.0 78.6----
2024-06-20 01:48 pm E 12.0 13.0----30.34- 78.6 78.1----
2024-06-20 01:42 pm E 11.1 13.0----30.34- 78.4 77.9----
2024-06-20 01:36 pm E 12.0 13.0----30.34- 78.3 78.1----
2024-06-20 01:30 pm E 12.0 13.0----30.34- 78.4 78.1----
2024-06-20 01:24 pm E 12.0 13.0----30.34- 78.3 78.3----
2024-06-20 01:18 pm E 12.0 13.0----30.34- 78.4 78.3----
2024-06-20 01:12 pm E 12.0 13.0----30.35- 78.3 78.1----
2024-06-20 01:06 pm E 12.0 14.0----30.35- 78.4 78.1----
2024-06-20 01:00 pmENE 12.0 13.0----30.35-0.02 78.3 78.1----
2024-06-20 12:54 pm E 11.1 14.0----30.35- 78.4 78.3----
2024-06-20 12:48 pm E 11.1 14.0----30.35- 78.4 78.3----
2024-06-20 12:42 pmENE 12.0 13.0----30.35- 78.3 78.1----
2024-06-20 12:36 pmENE 11.1 13.0----30.36- 78.3 77.9----
2024-06-20 12:30 pmENE 11.1 12.0----30.36- 78.4 78.1----
2024-06-20 12:24 pm E 11.1 12.0----30.36- 78.3 78.3----
2024-06-20 12:18 pm E 11.1 12.0----30.36- 78.1 78.4----
2024-06-20 12:12 pm E 11.1 12.0----30.36- 78.1 78.4----
2024-06-20 12:06 pm E 11.1 12.0----30.36- 78.1 78.3----
2024-06-20 12:00 pm E 11.1 12.0----30.36+0.00 78.1 78.3----
2024-06-20 11:54 am E 9.9 13.0----30.36- 78.1 78.3----
2024-06-20 11:48 amENE 11.1 12.0----30.36- 77.7 78.3----
2024-06-20 11:42 amENE 8.9 11.1----30.36- 77.9 78.4----
2024-06-20 11:36 amENE 8.9 8.9----30.36- 78.3 78.3----
2024-06-20 11:30 amENE 8.0 8.9----30.36- 78.1 78.3----
2024-06-20 11:24 amENE 8.9 9.9----30.36- 77.9 78.3----
2024-06-20 11:18 amENE 7.0 8.9----30.36- 78.1 78.4----
2024-06-20 11:12 amENE 8.0 9.9----30.36- 77.9 78.3----
2024-06-20 11:06 amENE 8.0 8.9----30.36- 78.1 78.4----
2024-06-20 11:00 amENE 7.0 9.9----30.36+0.00 78.1 78.4----
2024-06-20 10:54 am E 7.0 9.9----30.36- 77.9 78.4----
2024-06-20 10:48 am E 8.9 8.9----30.36- 77.7 78.4----
2024-06-20 10:42 am E 8.0 8.9----30.36- 77.7 78.6----
2024-06-20 10:36 amENE 8.0 9.9----30.37- 77.5 78.6----
2024-06-20 10:30 am E 8.9 9.9----30.37- 77.0 79.0----
2024-06-20 10:24 amENE 8.0 8.9----30.37- 77.0 79.0----
2024-06-20 10:18 amENE 8.0 8.9----30.37- 77.2 78.8----
2024-06-20 10:12 amENE 7.0 8.0----30.37- 77.2 78.6----
2024-06-20 10:06 amENE 7.0 8.9----30.37- 76.6 78.6----
2024-06-20 10:00 amENE 7.0 8.9----30.37+0.01 76.6 78.6----
2024-06-20 09:54 amENE 7.0 8.0----30.36- 76.6 78.6----
2024-06-20 09:48 amENE 5.1 6.0----30.37- 76.8 78.6----
2024-06-20 09:42 amENE 4.1 5.1----30.37- 77.2 78.6----
2024-06-20 09:36 am NE 4.1 5.1----30.37- 77.5 78.6----
2024-06-20 09:30 am NE 4.1 5.1----30.37- 77.7 78.6----
2024-06-20 09:24 amNNE 4.1 5.1----30.37- 77.7 78.6----
2024-06-20 09:18 am N 2.9 4.1----30.37- 77.5 78.4----
2024-06-20 09:12 amNNE 2.9 4.1----30.37- 78.3 78.4----
2024-06-20 09:06 am N 2.9 4.1----30.37- 78.1 78.4----
2024-06-20 09:00 am NE 2.9 2.9----30.37+0.03 78.8 78.4----
2024-06-20 08:54 amENE 2.9 4.1----30.37- 78.6 78.4----
2024-06-20 08:48 am E 1.9 4.1----30.37- 78.8 78.4----
2024-06-20 08:42 amESE 2.9 4.1----30.37- 79.5 78.4----
2024-06-20 08:36 am SE 1.9 4.1----30.37- 79.0 78.4----
2024-06-20 08:30 amESE 1.9 4.1----30.37- 78.1 78.4----
2024-06-20 08:24 amESE 2.9 4.1----30.37- 78.3 78.4----
2024-06-20 08:18 am SE 4.1 5.1----30.37- 78.3 78.4----
2024-06-20 08:12 amSSE 2.9 4.1----30.37- 78.8 78.4----
2024-06-20 08:06 amESE 1.9 1.9----30.37- 78.8 78.3----
2024-06-20 08:00 am SE 1.0 2.9----30.37+0.04 78.4 78.3----
2024-06-20 07:54 amESE 1.0 1.9----30.37- 78.4 78.3----
2024-06-20 07:48 am SE 1.9 2.9----30.37- 77.9 78.3----
2024-06-20 07:42 amSSE 1.9 2.9----30.36- 77.9 78.4----
2024-06-20 07:36 amSSE 1.0 1.9----30.36- 77.9 78.4----
2024-06-20 07:30 am- 0.0 1.9----30.36- 77.4 78.3----
2024-06-20 07:24 am- 0.0 1.9----30.36- 76.8 78.3----
2024-06-20 07:18 am S 1.0 1.9----30.35- 76.5 78.3----
2024-06-20 07:12 am- 0.0 0.0----30.35- 76.1 78.3----
2024-06-20 07:06 am- 0.0 1.0----30.35- 75.4 78.3----
2024-06-20 07:00 amWSW 1.0 1.9----30.35+0.03 74.5 78.3----
2024-06-20 06:54 am W 1.0 1.0----30.35- 74.1 78.3----
2024-06-20 06:48 am- 0.0 1.0----30.35- 73.9 78.3----
2024-06-20 06:42 am- 0.0 1.0----30.35- 73.4 78.3----
2024-06-20 06:36 am- 0.0 1.0----30.34- 73.6 78.3----
2024-06-20 06:30 am- 0.0 1.9----30.34- 73.9 78.3----
2024-06-20 06:24 am SE 1.0 1.9----30.34- 73.2 78.4----
2024-06-20 06:18 am- 0.0 0.0----30.34- 72.3 78.6----
2024-06-20 06:12 am- 0.0 1.9----30.34- 71.8 78.6----
2024-06-20 06:06 amSSE 1.0 1.9----30.34- 71.4 78.4----
2024-06-20 06:00 am S 1.0 1.9----30.34+0.02 71.2 78.4----
2024-06-20 05:54 amSSW 1.0 1.9----30.33- 71.1 78.4----
2024-06-20 05:48 am S 1.0 1.9----30.33- 71.2 78.4----
2024-06-20 05:42 amSSE 1.0 1.9----30.33- 71.4 78.4----
2024-06-20 05:36 amSSE 1.0 1.0----30.33- 71.2 78.4----
2024-06-20 05:30 am S 1.0 1.9----30.33- 71.1 78.4----
2024-06-20 05:24 amSSW 1.0 1.9----30.33- 71.1 78.4----
2024-06-20 05:18 am S 1.0 1.9----30.33- 71.1 78.4----
2024-06-20 05:12 am S 1.0 1.9----30.33- 70.9 78.4----
2024-06-20 05:06 am S 1.9 1.9----30.33- 70.9 78.4----
2024-06-20 05:00 am S 1.0 1.9----30.33+0.01 71.1 78.4----
2024-06-20 04:54 am S 1.9 1.9----30.32- 70.9 78.4----
2024-06-20 04:48 amSSW 1.9 1.9----30.32- 70.9 78.3----
2024-06-20 04:42 amSSW 1.0 1.9----30.32- 71.2 78.3----
2024-06-20 04:36 amSSW 1.0 1.0----30.32- 71.1 78.3----
2024-06-20 04:30 am SW 1.0 1.9----30.32- 70.9 78.3----
2024-06-20 04:24 amWSW 1.0 1.9----30.33- 70.9 78.4----
2024-06-20 04:18 am SW 1.0 1.9----30.32- 70.9 78.3----
2024-06-20 04:12 amSSW 1.9 1.9----30.32- 70.9 78.3----
2024-06-20 04:06 am S 1.9 1.9----30.32- 71.1 78.3----
2024-06-20 04:00 am S 1.9 1.9----30.32+0.01 71.2 78.3----
2024-06-20 03:54 amSSW 1.9 1.9----30.32- 71.6 78.3----
2024-06-20 03:48 amSSE 1.9 2.9----30.32- 72.0 78.3----
2024-06-20 03:42 amSSE 1.9 2.9----30.32- 71.4 78.3----
2024-06-20 03:36 amSSW 1.0 1.9----30.32- 71.2 78.3----
2024-06-20 03:30 am S 1.0 2.9----30.32- 71.2 78.3----
2024-06-20 03:24 am S 1.9 2.9----30.32- 71.4 78.3----
2024-06-20 03:18 am S 1.9 1.9----30.32- 71.6 78.3----
2024-06-20 03:12 am S 1.9 1.9----30.32- 71.6 78.4----
2024-06-20 03:06 amSSW 1.9 1.9----30.31- 71.6 78.3----
2024-06-20 03:00 amSSW 1.9 1.9----30.31-0.02 71.8 77.9----
2024-06-20 02:54 amSSW 1.9 1.9----30.31- 71.8 78.1----
2024-06-20 02:48 amSSW 1.0 1.9----30.31- 71.8 78.1----
2024-06-20 02:42 amSSW 1.0 1.9----30.31- 71.8 78.1----
2024-06-20 02:36 am S 1.0 1.9----30.31- 72.3 77.9----
2024-06-20 02:30 amSSE 1.9 2.9----30.32- 72.3 77.7----
2024-06-20 02:24 am S 1.0 1.9----30.32- 72.0 77.7----
2024-06-20 02:18 am S 1.0 1.9----30.32- 72.0 77.9----
2024-06-20 02:12 amSSW 1.0 1.9----30.32- 72.0 77.9----
2024-06-20 02:06 amWSW 1.0 1.9----30.32- 72.0 77.9----
2024-06-20 02:00 amSSW 1.0 1.9----30.31-0.03 72.1 78.3----
2024-06-20 01:54 am SW 1.0 1.9----30.31- 72.3 77.7----
2024-06-20 01:48 am- 0.0 1.0----30.31- 72.9 78.6----
2024-06-20 01:42 am- 0.0 1.9----30.32- 72.9 78.6----
2024-06-20 01:36 amSSE 1.0 1.9----30.32- 72.9 78.8----
2024-06-20 01:30 am S 1.9 2.9----30.32- 72.9 78.6----
2024-06-20 01:24 amSSE 1.9 2.9----30.32- 72.9 78.6----
2024-06-20 01:18 am S 1.9 2.9----30.32- 72.9 78.4----
2024-06-20 01:12 am S 1.9 2.9----30.32- 73.0 78.4----
2024-06-20 01:06 amSSE 1.9 2.9----30.32- 73.0 78.6----
2024-06-20 01:00 amSSE 2.9 4.1----30.32-0.02 73.0 78.6----
2024-06-20 12:54 am S 2.9 4.1----30.32- 73.2 78.4----
2024-06-20 12:48 am S 2.9 4.1----30.32- 73.2 78.4----
2024-06-20 12:42 amSSE 2.9 4.1----30.32- 73.4 78.6----
2024-06-20 12:36 amSSE 2.9 2.9----30.32- 73.6 78.8----
2024-06-20 12:30 am S 2.9 4.1----30.32- 73.6 79.0----
2024-06-20 12:24 amSSE 1.9 2.9----30.32- 73.8 78.8----
2024-06-20 12:18 amSSE 2.9 2.9----30.32- 73.4 78.8----
2024-06-20 12:12 am S 1.9 2.9----30.32- 73.2 78.8----
2024-06-20 12:06 amSSW 1.9 2.9----30.33- 73.2 78.8----
2024-06-20 12:00 am S 1.0 2.9----30.33+0.00 74.1 78.8----
2024-06-19 11:54 pm S 1.9 4.1----30.33- 74.1 79.0----